Gustavus, AK

9:36 PM AKDT on May 20, 2018 (GMT -0800)
Gustavus

Weather History for PAGS - May, 2013

Change the Weather History Date:

Thursday, May 23, 2013

  Actual Average Record
Temperature  
Mean Temperature 46 °F -  
Max Temperature 60 °F 58 °F 73 °F (1985)
Min Temperature 33 °F 39 °F 24 °F (1986)
Degree Days  
Heating Degree Days 18    
Moisture  
Dew Point 38 °F    
Average Humidity 64    
Maximum Humidity 100    
Minimum Humidity 36    
Precipitation  
Precipitation 0.00 in - - ()
Sea Level Pressure  
Sea Level Pressure 30.03 in    
Wind  
Wind Speed 4 mph (SW)    
Max Wind Speed 13 mph    
Max Gust Speed 16 mph    
Visibility 10 miles    
Events      
Averages and records for this station are not official NWS values.
T = Trace of Precipitation, MM = Missing Value Source: NWS Daily Summary

Daily Weather History Graph

Daily Weather History Graph

Search for Another Location

Airport or City:

Astronomy

May. 23, 2013 Rise Set
Actual Time 4:19 AM AKDT 9:41 PM AKDT
Civil Twilight 3:16 AM AKDT 10:44 PM AKDT
Nautical Twilight 1:32 AM AKDT 12:27 AM AKDT
Astronomical Twilight Sun does not set Sun does not set
Moon 8:05 PM AKDT (5/23) 3:37 AM AKDT (5/23)
Length of Visible Light 19h 28m
Length of Day
17h 21m
Waxing Gibbous, 97% of the Moon is Illuminated
May 23
Waxing Gibbous
May 24
Full
May 31
Last Quarter
Jun 8
New
Jun 16
First Quarter

Hourly Weather History & Observations

Time (AKDT) Temp. Windchill Dew Point Humidity Pressure Visibility Wind Dir Wind Speed Gust Speed Precip Events Conditions
12:16 AM 41.0 °F - 35.6 °F 81% 30.11 in 10.0 mi Calm Calm - N/A   Clear
12:36 AM 41.0 °F - 37.4 °F 87% 30.12 in 10.0 mi Calm Calm - N/A   Clear
12:56 AM 39.2 °F - 37.4 °F 93% 30.12 in 10.0 mi Calm Calm - N/A   Clear
1:16 AM 37.4 °F - 35.6 °F 93% 30.11 in 10.0 mi Calm Calm - N/A   Clear
3:36 AM 37.4 °F - 33.8 °F 87% 30.10 in 10.0 mi Calm Calm - N/A   Clear
5:16 AM 33.8 °F - 33.8 °F 100% 30.10 in 10.0 mi Calm Calm - N/A   Clear
5:36 AM 33.8 °F - 33.8 °F 100% 30.09 in 10.0 mi Calm Calm - N/A   Clear
5:56 AM 35.6 °F - 33.8 °F 93% 30.09 in 10.0 mi Calm Calm - N/A   Clear
6:16 AM 37.4 °F - 35.6 °F 93% 30.09 in 10.0 mi Calm Calm - N/A   Clear
6:36 AM 39.2 °F - 35.6 °F 87% 30.09 in 10.0 mi Calm Calm - N/A   Clear
6:56 AM 41.0 °F 39.0 °F 39.2 °F 93% 30.08 in 10.0 mi NNE 3.5 mph - N/A   Clear
7:16 AM 44.6 °F - 39.2 °F 81% 30.08 in 10.0 mi Calm Calm - N/A   Clear
7:36 AM 46.4 °F - 39.2 °F 76% 30.07 in 10.0 mi Calm Calm - N/A   Clear
7:56 AM 46.4 °F 44.3 °F 39.2 °F 76% 30.07 in 10.0 mi WNW 4.6 mph - N/A   Clear
8:16 AM 48.2 °F - 37.4 °F 66% 30.06 in 10.0 mi WNW 4.6 mph - N/A   Clear
8:36 AM 50.0 °F - 37.4 °F 62% 30.06 in 10.0 mi Calm Calm - N/A   Clear
8:56 AM 51.8 °F - 37.4 °F 58% 30.06 in 10.0 mi West 3.5 mph - N/A   Clear
9:16 AM 51.8 °F - 41.0 °F 67% 30.06 in 10.0 mi SSW 4.6 mph - N/A   Clear
9:36 AM 51.8 °F - 39.2 °F 62% 30.05 in 10.0 mi South 5.8 mph - N/A   Clear
9:56 AM 51.8 °F - 39.2 °F 62% 30.05 in 10.0 mi SSW 8.1 mph - N/A   Clear
10:16 AM 51.8 °F - 37.4 °F 58% 30.04 in 10.0 mi SSW 6.9 mph - N/A   Clear
10:36 AM 51.8 °F - 37.4 °F 58% 30.04 in 10.0 mi SSW 10.4 mph - N/A   Clear
10:56 AM 51.8 °F - 39.2 °F 62% 30.03 in 10.0 mi SSW 9.2 mph - N/A   Clear
11:16 AM 53.6 °F - 37.4 °F 54% 30.03 in 10.0 mi South 6.9 mph - N/A   Clear
11:36 AM 53.6 °F - 37.4 °F 54% 30.02 in 10.0 mi SSE 6.9 mph - N/A   Clear
11:56 AM 57.2 °F - 32.0 °F 38% 30.02 in 10.0 mi NW 4.6 mph - N/A   Clear
12:16 PM 59.0 °F - 33.8 °F 39% 30.02 in 10.0 mi NW 8.1 mph - N/A   Clear
12:36 PM 59.0 °F - 32.0 °F 36% 30.01 in 10.0 mi WNW 8.1 mph - N/A   Clear
12:56 PM - - - N/A% 30.01 in 10.0 mi SSW 11.5 mph - N/A   Clear
1:16 PM - - - N/A% 30.01 in 10.0 mi SW 9.2 mph - N/A   Clear
1:36 PM - - - N/A% 30.01 in 10.0 mi SW 11.5 mph - N/A   Clear
1:56 PM 57.2 °F - 37.4 °F 48% 30.01 in 10.0 mi SW 11.5 mph - N/A   Clear
2:16 PM 57.2 °F - 37.4 °F 48% 30.01 in 10.0 mi SSW 11.5 mph 16.1 mph N/A   Clear
2:36 PM 57.2 °F - 37.4 °F 48% 30.01 in 10.0 mi SW 11.5 mph - N/A   Clear
2:56 PM 57.2 °F - 37.4 °F 48% 30.00 in 10.0 mi SSW 10.4 mph - N/A   Clear
3:16 PM 57.2 °F - 37.4 °F 48% 30.01 in 10.0 mi SW 12.7 mph - N/A   Clear
3:36 PM 57.2 °F - 37.4 °F 48% 30.00 in 10.0 mi SW 11.5 mph 16.1 mph N/A   Clear
3:56 PM 57.2 °F - 37.4 °F 48% 30.00 in 10.0 mi SW 9.2 mph - N/A   Clear
4:16 PM 57.2 °F - 39.2 °F 51% 29.99 in 10.0 mi SW 9.2 mph - N/A   Clear
4:36 PM 57.2 °F - 39.2 °F 51% 29.98 in 10.0 mi SSW 9.2 mph - N/A   Clear
4:56 PM 59.0 °F - 39.2 °F 48% 29.98 in 10.0 mi SSW 9.2 mph - N/A   Clear
5:16 PM 57.2 °F - 42.8 °F 59% 29.98 in 10.0 mi SSW 12.7 mph - N/A   Clear
5:36 PM 57.2 °F - 41.0 °F 55% 29.98 in 10.0 mi SSW 10.4 mph - N/A   Clear
5:56 PM 57.2 °F - 41.0 °F 55% 29.97 in 10.0 mi SSW 6.9 mph - N/A   Clear
6:16 PM 60.8 °F - 37.4 °F 42% 29.97 in 10.0 mi WSW 8.1 mph - N/A   Clear
6:36 PM 60.8 °F - 37.4 °F 42% 29.96 in 10.0 mi West 6.9 mph - N/A   Clear
7:36 PM 59.0 °F - 37.4 °F 45% 29.97 in 10.0 mi West 6.9 mph - N/A   Clear
7:56 PM 57.2 °F - 37.4 °F 48% 29.97 in 10.0 mi West 5.8 mph - N/A   Clear
8:16 PM 57.2 °F - 37.4 °F 48% 29.97 in 10.0 mi West 4.6 mph - N/A   Clear
8:36 PM 55.4 °F - 37.4 °F 51% 29.97 in 10.0 mi West 4.6 mph - N/A   Clear
8:56 PM 53.6 °F - 37.4 °F 54% 29.97 in 10.0 mi West 3.5 mph - N/A   Clear
9:16 PM 51.8 °F - 39.2 °F 62% 29.98 in 10.0 mi SSE 3.5 mph - N/A   Clear
9:36 PM 48.2 °F - 41.0 °F 76% 29.98 in 10.0 mi Calm Calm - N/A   Clear
9:56 PM 48.2 °F - 41.0 °F 76% 29.98 in 10.0 mi SSW 3.5 mph - N/A   Clear
10:16 PM 46.4 °F - 41.0 °F 81% 29.97 in 10.0 mi Calm Calm - N/A   Clear
10:36 PM 46.4 °F - 41.0 °F 81% 29.97 in 10.0 mi Calm Calm - N/A   Clear